Location: G�nzburg
(48.4565°N, 10.3217°E)
Time: 20:58:35
(UTC+02:00)

ISS - Visible Passes

Search period start: 25 May 2018 00:00
Search period end: 04 June 2018 00:00
Orbit: 402 x 407 km, 51.6° (Epoch: 26 May)

Date Brightness Start Highest point End Pass type
(mag) Time Alt. Az. Time Alt. Az. Time Alt. Az.
25 May -2.8 00:29:46 10° WNW 00:32:57 47° N 00:35:42 13° E visible
25 May -2.7 02:06:19 10° WNW 02:08:17 33° WNW 02:08:17 33° WNW visible
25 May -3.7 22:00:40 10° WSW 22:03:57 83° NNW 22:07:14 10° ENE visible
25 May -2.7 23:37:30 10° WNW 23:40:40 45° N 23:43:50 10° ENE visible
26 May -3.7 01:14:07 10° WNW 01:17:14 73° NNW 01:17:14 73° NNW visible
26 May -2.8 22:45:11 10° W 22:48:22 48° N 22:51:34 10° ENE visible
27 May -3.3 00:21:55 10° WNW 00:25:09 58° NNE 00:26:26 32° E visible
27 May -1.4 01:58:30 10° WNW 01:59:02 14° W 01:59:02 14° W visible
27 May -3.1 21:52:51 10° W 21:56:05 57° NNW 21:59:19 10° ENE visible
27 May -2.9 23:29:40 10° WNW 23:32:52 49° N 23:35:42 12° E visible
28 May -2.8 01:06:12 10° WNW 01:08:20 36° W 01:08:20 36° W visible
28 May -2.7 22:37:22 10° WNW 22:40:32 45° N 22:43:43 10° ENE visible
29 May -3.9 00:13:58 10° WNW 00:17:15 86° NNE 00:17:41 64° ESE visible
29 May -2.7 21:45:01 10° W 21:48:12 47° N 21:51:23 10° ENE visible
29 May -3.5 23:21:43 10° WNW 23:24:59 64° NNE 23:27:04 20° E visible
30 May -1.9 00:58:21 10° W 00:59:41 20° W 00:59:41 20° W visible
30 May -3.0 22:29:27 10° WNW 22:32:39 51° N 22:35:52 10° E visible
31 May -3.7 00:05:59 10° WNW 00:09:05 54° SW 00:09:05 54° SW visible
31 May -3.9 23:13:41 10° WNW 23:16:58 84° SSW 23:18:32 28° ESE visible
01 Jun -1.2 00:50:47 10° W 00:51:09 12° W 00:51:09 12° W visible
01 Jun -3.6 22:21:24 10° WNW 22:24:41 70° NNE 22:27:56 10° ESE visible
01 Jun -2.6 23:58:06 10° W 00:00:36 28° SW 00:00:36 28° SW visible
02 Jun -3.4 23:05:39 10° WNW 23:08:48 46° SSW 23:10:05 29° SSE visible
03 Jun -3.8 22:13:17 10° WNW 22:16:34 73° SSW 22:19:35 12° ESE visible
03 Jun -1.6 23:50:39 10° W 23:52:13 15° SW 23:52:13 15° SW visible
